STARLINK-32767, 62601

Orbit data source: Space-Track

STARLINK-32767, 62601 is a payload satellite owned by SpaceX/Seattle (US) in LEO that was launched on Mon, 13 Jan 2025 UTC via an FALCON 9 launch vehicle from the Air Force Eastern Test Range (AFETR). Payload-class satellites include a variety of spacecraft equipped with specific instruments for various scientific and technological missions. These include communications satellites like Starlink; space stations such as the ISS; scientific satellites like the Hubble; Earth observation satellites from companies like Planet Labs, Umbra, and HawkEye 360; GPS; miniature CubeSats for education and research; and military/defense satellites.

Loading next visibility...
Identifier
62601, 2025-008Q
Orbit
LEO
Country
Flag of USUS
Related business
Manufacturer
SpaceX/Seattle
Mission
Operational Commercial Communications
Bus & Motor
STARLINK V2M, Unknown motor
Mass
730 kg wet, ~700 kg dry
Launch date (UTC)
2025-01-13 (1 year ago)
Launch vehicle
FALCON 9
Launch site
Air Force Eastern Test Range (AFETR)
Object type
Payload
Rocket body
Debris
Shape & HBR
Box + 2 Pan, 17.7 m
Radar Cross Section
33.884 m², Large (>1 m²)

Expand to show TLE details & history
Last TLE update: 4 days ago

TLE from 4 days ago
0 STARLINK-32767
1 62601U 25008Q   26154.13370091  .00028373  00000-0  10352-2 0  9998
2 62601  43.0001 155.2296 0001462 246.0785 113.9913 15.27625917 78692
Epoch: 2026-06-03T03:12Z
TLE epoch observation values (Epoch: 2026-06-03T03:12:31.758Z)
Latitude
-0.00007°
Longitude
-144.49948°
Altitude
483.095 km
Speed
7.625 km/s
True Right ascension
10h 20m 55s
True Declination
0° 00' 00"
Sunlit
Object was in daylight at epoch
Visualization orbit readout
Latitude
Unknown
Longitude
Unknown
Altitude
Unknown
Speed
Unknown
Apparent Right ascension
Unknown
Apparent Declination
Unknown
Sunlit
N/A
Visualization observer readout
Local Sidereal Time
02:30:09
Azimuth
Unknown
Elevation
Unknown
Doppler factor
Unknown
Orbital elements
Apogee altitude
485.86 km
Perigee altitude
483.853 km
Semi-major axis
6,862.994 km
Eccentricity
0.00015
Inclination
43.0001°
RAAN
155.2296°
Arg. of periapsis
246.0785°
True anomaly
114.0066°
Mean anomaly
113.9913°
Eccentric anomaly
113.99895°
Mean motion
3.81744 °/min
Orbital period
94.3 mins
BSTAR
0.0010352
Loading maneuver chart data...
Computing Atmospheric mass density...
Loading historical data...
Loading historical data...
Loading historical data...
Loading historical data...
Loading historical data...
Loading historical data...
Loading historical data...

Documentation

Showing up to 5 results
|